Location: Kergornet
(47.8124°N, 3.4342°W)
Time: 17:12:53
(UTC+00:00)

Daily predictions for brighter satellites

Satellite Brightness Start Highest point End
(mag) Time Altitude Azimuth Time Altitude Azimuth Time Altitude Azimuth
STARLINK-27 3.6 18:10:01 10° SW 18:14:02 75° SSE 18:18:04 10° ENE
STARLINK-74 3.6 18:11:41 10° SW 18:15:41 77° SSE 18:19:44 10° ENE
Meteor 2-6 Rocket 4.3 18:10:30 10° NNW 18:16:05 87° WSW 18:21:30 10° S
Cosmos 1812 3.0 18:12:39 10° N 18:16:23 45° ENE 18:20:06 10° SSE
STARLINK-39 3.6 18:13:19 10° SW 18:17:21 79° SSE 18:21:23 10° ENE
Meteor 1-10 Rocket 4.2 18:12:14 10° N 18:17:53 84° E 18:23:26 10° SSE
SL-4 R/B 4.5 18:13:52 10° W 18:17:56 28° SW 18:21:50 10° SSE
Cosmos 2369 Rocket 2.7 18:13:07 10° S 18:18:20 40° ESE 18:23:37 10° NE
YAOGAN 1 2.8 18:14:34 10° SE 18:18:44 49° ENE 18:22:56 10° N
STARLINK-42 3.3 18:15:35 10° WSW 18:18:48 63° NNW 18:22:02 10° ENE
STARLINK-31 3.6 18:15:00 10° WSW 18:19:02 81° SSE 18:23:03 10° ENE
Cosmos 1864 Rocket 4.5 18:13:43 10° S 18:19:49 68° E 18:25:55 10° NNE
STARLINK-69 3.6 18:16:48 10° WSW 18:20:50 87° SSE 18:24:52 10° ENE
Cosmos 2285 Rocket 4.4 18:15:15 10° NNW 18:21:20 44° ENE 18:27:25 10° SE
STARLINK-21 3.5 18:18:18 10° WSW 18:22:20 85° SSE 18:26:22 10° ENE
SL-27 R/B 2.2 18:19:14 10° NNW 18:22:34 66° ENE 18:25:51 10° SSE
Cosmos 1802 Rocket 4.2 18:16:27 10° S 18:22:45 83° W 18:29:11 10° N
Cosmos 1633 Rocket 3.3 18:18:58 10° SSE 18:23:07 47° E 18:27:18 10° NNE
STARLINK-1010 3.0 18:20:09 10° SW 18:23:22 72° SSE 18:26:37 10° ENE
STARLINK-45 3.6 18:20:10 10° WSW 18:24:11 88° NNW 18:28:14 10° ENE
Tsikada Rocket 4.1 18:17:49 10° N 18:24:13 72° E 18:30:37 10° SSE
CZ-2D R/B 3.6 18:21:18 10° SE 18:25:00 44° ENE 18:28:43 10° N
STARLINK-70 3.6 18:21:44 10° WSW 18:25:45 89° NNW 18:29:48 10° ENE
Cosmos 1862 3.2 18:22:18 10° S 18:26:17 78° E 18:30:16 10° NNE
USA 234 4.1 18:20:19 10° ENE 18:26:19 40° N 18:32:19 10° WNW
SKYMED 2 3.5 18:22:09 10° NNE 18:26:31 75° ESE 18:30:51 10° S
STARLINK-76 3.6 18:23:16 10° WSW 18:27:17 90° W 18:31:21 10° ENE
STARLINK-23 3.6 18:24:56 10° WSW 18:28:58 88° NNW 18:33:00 10° ENE
Cosmos 1666 Rocket 3.6 18:25:22 10° S 18:29:47 68° E 18:34:16 10° NNE
Cosmos 1238 Rocket 4.3 18:23:24 10° SSW 18:29:50 80° W 18:36:32 10° N
STARLINK-29 3.1 18:26:54 10° WNW 18:30:20 70° NNE 18:33:42 10° ESE
STARLINK-32 3.6 18:26:35 10° WSW 18:30:37 86° NNW 18:34:40 10° ENE
USA 229 DEB 3.7 18:25:14 10° SSW 18:31:45 77° SE 18:38:40 10° NE
USA 229 3.6 18:25:21 10° SSW 18:31:52 76° SE 18:38:45 10° NE
STARLINK-40 3.6 18:28:13 10° WSW 18:32:15 85° NNW 18:36:18 10° ENE
STARLINK-44 3.6 18:29:53 10° WSW 18:33:54 83° NNW 18:37:56 10° ENE
Cosmos 44 3.1 18:30:01 10° NNW 18:34:23 64° NE 18:38:53 10° SE
STARLINK-37 3.6 18:31:40 10° WSW 18:35:42 79° NNW 18:39:38 11° ENE
STARLINK-64 3.6 18:32:21 10° WSW 18:35:54 61° NNW 18:39:23 11° ENE
STARLINK-1029 2.9 18:33:11 10° SW 18:36:20 70° SSE 18:39:10 12° ENE
Cosmos 2016 Rocket 4.2 18:30:17 10° SSW 18:36:22 78° W 18:42:33 10° N
STARLINK-36 3.6 18:33:12 10° WSW 18:37:14 80° NNW 18:41:07 11° ENE
STARLINK-75 3.7 18:34:03 10° W 18:37:23 52° NNW 18:40:35 11° ENE
STARLINK-1016 2.9 18:34:08 10° WSW 18:37:24 90° W 18:40:22 12° ENE
STARLINK-1008 3.0 18:34:08 10° WSW 18:37:26 90° NNW 18:40:27 12° ENE
NOSS 3-1 (A) 3.5 18:33:39 10° SSW 18:38:59 55° ESE 18:45:11 10° NE
STARLINK-68 3.7 18:35:03 10° WSW 18:39:05 74° NNW 18:42:53 11° ENE
Cosmos 1346 Rocket 3.6 18:35:50 10° SSE 18:39:16 28° E 18:42:42 10° NNE
STARLINK-22 3.5 18:36:29 10° WSW 18:39:50 57° NNW 18:42:54 12° ENE
STARLINK-1033 4.3 18:36:02 10° SSW 18:39:51 38° SE 18:43:07 13° ENE
STARLINK-1025 3.0 18:37:12 10° WSW 18:40:29 86° NNW 18:43:21 13° ENE
STARLINK-1035 4.2 18:36:30 10° SSW 18:40:32 43° SE 18:44:01 13° ENE
STARLINK-63 3.7 18:36:37 10° WSW 18:40:38 75° NNW 18:44:23 12° ENE
STARLINK-41 3.6 18:37:59 10° W 18:41:18 54° NNW 18:44:18 12° ENE
FALCON 9 DEB 3.1 18:38:15 10° WNW 18:41:43 88° SSW 18:45:00 11° ESE
STARLINK-1017 3.0 18:38:43 10° WSW 18:42:00 84° NNW 18:44:49 13° ENE
STARLINK-61 4.0 18:38:12 10° W 18:42:02 54° NNW 18:45:35 12° ENE
STARLINK-35 3.6 18:38:10 10° WSW 18:42:11 76° NNW 18:45:52 12° ENE
Ariane Rocket 3.6 18:37:46 10° SE 18:42:24 36° ENE 18:47:03 10° N
STARLINK-52 3.0 18:39:06 10° WNW 18:42:30 76° NNE 18:45:24 13° ESE
STARLINK-48 4.4 18:39:28 10° WNW 18:43:09 39° N 18:46:26 13° ENE
USA 116 3.9 18:39:22 10° NNE 18:43:18 61° ESE 18:47:43 10° S
STARLINK-51 3.7 18:39:50 10° WSW 18:43:51 74° NNW 18:47:29 13° ENE
STARLINK-26 4.2 18:40:50 10° WNW 18:44:06 36° N 18:46:54 13° ENE
ARGOS 4.2 18:40:38 10° ESE 18:45:01 26° ENE 18:49:26 10° N
STARLINK-30 3.7 18:41:30 10° WSW 18:45:31 73° NNW 18:49:04 13° ENE
CSL-04 Rocket 3.7 18:40:48 10° SSE 18:46:20 82° ENE 18:51:51 10° NNW
STARLINK-1048 3.0 18:43:22 10° WSW 18:46:39 79° NNW 18:49:18 15° ENE
STARLINK 1040 2.9 18:43:57 10° WSW 18:46:44 62° NNW 18:48:51 16° NE
STARLINK-72 3.7 18:43:08 10° WSW 18:47:09 71° NNW 18:50:38 14° ENE
CENTAUR R/B 4.3 18:41:49 10° NW 18:47:41 25° N 18:54:05 10° ENE
STARLINK-1049 3.1 18:44:56 10° WSW 18:48:13 77° NNW 18:50:48 15° ENE
STARLINK-60 4.0 18:45:06 10° WNW 18:48:16 45° SW 18:51:26 10° SE
STARLINK-50 3.7 18:44:48 10° WSW 18:48:49 70° NNW 18:52:14 14° ENE
STARLINK-1024 4.1 18:45:49 10° SW 18:49:45 44° SE 18:52:41 17° ENE
STARLINK-1051 3.1 18:46:33 10° WSW 18:49:50 75° NNW 18:52:21 16° ENE
STARLINK-1028 3.1 18:46:32 10° WSW 18:49:50 75° NNW 18:52:22 16° ENE
STARLINK-59 3.8 18:46:34 10° WSW 18:50:35 67° NNW 18:53:56 14° ENE
STARLINK-1027 3.9 18:46:58 10° SW 18:51:07 53° SE 18:54:16 17° ENE
STARLINK-1021 3.1 18:48:10 10° WSW 18:51:28 73° NNW 18:53:57 17° ENE
Cosmos 2233 Rocket 3.9 18:45:33 10° S 18:51:39 75° E 18:57:51 10° NNE
STARLINK-56 3.8 18:48:07 10° WSW 18:52:07 68° NNW 18:55:24 15° ENE
STARLINK-1014 3.1 18:49:01 10° WSW 18:52:28 86° NNW 18:55:03 17° ENE
STARLINK-1019 3.1 18:49:48 10° WSW 18:53:06 72° NNW 18:55:31 17° ENE
STARLINK-73 3.8 18:49:47 10° WSW 18:53:48 66° NNW 18:57:01 15° ENE
STARLINK-1012 3.2 18:51:31 10° WSW 18:54:48 70° NNW 18:57:09 18° ENE
STARLINK-38 3.8 18:51:28 10° WSW 18:55:29 65° NNW 18:58:37 16° ENE
H-2A R/B 2.8 18:50:59 10° SE 18:55:48 35° ENE 19:00:42 10° N
STARLINK-65 3.8 18:53:07 10° WSW 18:57:07 64° NNW 19:00:11 16° ENE
STARLINK-1026 3.2 18:54:49 10° WSW 18:58:06 67° NNW 19:00:20 19° ENE
ATLAS 3B R/B 4.3 18:53:33 10° NW 18:58:19 20° N 19:03:09 10° NE
DMSP B5D1-3 4.5 18:53:26 10° NNE 18:58:34 64° ESE 19:03:40 10° S
STARLINK-53 3.9 18:54:52 10° WSW 18:58:52 62° NNW 19:01:52 17° ENE
Lacrosse 5 3.9 18:58:01 10° SE 18:58:30 11° SE 18:58:30 11° SE
STARLINK-1032 3.9 18:55:40 10° SW 18:59:41 51° SE 19:02:16 20° ENE
STARLINK-1013 3.3 18:56:28 10° WSW 18:59:45 66° NNW 19:01:55 20° NE
Cosmos 2297 Rocket 4.0 18:57:19 10° N 19:00:21 14° NE 19:02:16 12° NE
Sich 1 4.4 18:56:53 10° SSW 19:00:57 41° WNW 19:05:01 10° N
STARLINK-1009 3.3 18:58:07 10° WSW 19:01:25 64° NNW 19:03:31 20° NE
Cosmos 724 4.3 18:55:49 10° NW 19:01:39 89° WSW 19:07:29 10° SE
STARLINK-43 4.1 18:59:26 10° WNW 19:02:57 40° N 19:04:52 22° ENE
Cosmos 1937 Rocket 4.5 18:58:29 10° N 19:02:58 27° NE 19:05:15 20° E
STARLINK-1015 3.3 18:59:49 10° WSW 19:03:07 63° NNW 19:05:09 21° NE
CSL-04 Debris 4.5 18:57:52 10° S 19:03:18 73° WSW 19:08:48 10° NNW
NOSS 2-3 (C) 3.7 18:59:45 10° SSW 19:04:01 60° SE 19:09:00 10° NE
STARLINK-1011 3.8 19:00:36 10° SW 19:04:38 55° SE 19:07:02 23° ENE
Lacrosse 5 rocket 3.1 19:02:37 10° WNW 19:06:24 25° N 19:09:19 14° NE
Okean 1 4.1 19:03:23 10° N 19:06:55 29° ENE 19:08:21 23° ESE
Lacrosse 4 Rocket 3.7 19:03:29 10° W 19:06:56 23° NW 19:10:28 10° NNE
Meteor 1-27 Rocket 4.3 19:03:41 10° NNW 19:09:10 62° W 19:14:41 10° S
STARLINK-1036 3.7 19:05:32 10° SW 19:09:37 60° SE 19:11:49 25° ENE
Cosmos 1470 Rocket 3.4 19:05:43 10° S 19:10:03 81° E 19:14:29 10° NNE
Cosmos 2242 Rocket 3.5 19:06:48 10° N 19:11:21 72° E 19:15:54 10° SSE
COSMO-SKYMED 1 4.2 19:10:28 10° N 19:14:28 37° WNW 19:18:27 10° SW
STARLINK-1044 3.6 19:10:28 10° SW 19:14:33 64° SSE 19:16:36 28° ENE
Resurs 01 Rocket 3.5 19:15:31 15° NE 19:15:31 15° NE 19:17:13 10° NNE
Cosmos 1862 Rocket 4.1 19:11:25 10° NNW 19:15:42 61° W 19:19:58 10° S
Cosmos 1943 Rocket 2.6 19:10:30 10° SW 19:16:01 63° WNW 19:21:33 10° NNE
Cosmos 1939 Rocket 4.0 19:13:14 10° S 19:17:14 48° W 19:21:17 10° NNW
Gbstr 26 Del rocket 4.0 19:13:59 10° SSW 19:17:31 28° SE 19:18:23 26° ESE
STARLINK-80 4.3 19:14:58 10° WNW 19:18:34 37° N 19:20:03 26° NE
Cosmos 2227 Rocket 3.8 19:15:29 10° N 19:19:00 16° NE 19:20:08 16° NE
CZ-4 R/B 3.5 19:16:45 10° SSW 19:20:28 30° W 19:24:10 10° NNW
STARLINK-1031 3.5 19:16:42 10° SW 19:20:44 77° SSE 19:22:30 32° ENE
OE (NEXTSAT) 4.4 19:18:50 10° W 19:22:18 66° S 19:23:19 41° ESE
Cosmos 1340 2.8 19:19:17 10° SSW 19:23:02 72° WNW 19:26:49 10° N
STARLINK-1037 3.5 19:20:20 10° SW 19:24:28 74° SSE 19:26:08 35° ENE
CZ-2C R/B 3.5 19:19:32 10° SE 19:25:08 51° ENE 19:30:38 10° N
Cosmos 405 3.0 19:25:18 10° N 19:28:47 55° ENE 19:29:30 45° ESE
STARLINK-24 4.2 19:25:10 10° W 19:29:05 48° NNW 19:30:47 29° NE
STARLINK-1059 3.5 19:25:22 10° SW 19:29:30 79° SSE 19:30:58 39° ENE
STARLINK-1023 3.7 19:27:16 10° W 19:30:19 43° NNW 19:31:04 35° NNE
FREGAT/IRIS 3.7 19:33:05 29° N 19:33:05 29° N 19:34:36 10° N
NOSS 3-1 (C) 4.1 19:26:35 10° WSW 19:32:05 52° NW 19:38:34 10° NE
Cosmos 1703 Rocket 3.5 19:28:07 10° N 19:32:36 75° E 19:37:04 10° SSE
STARLINK-58 4.2 19:29:55 10° W 19:33:17 39° NNW 19:34:19 31° NNE
Okean 1-7 2.9 19:29:01 10° N 19:33:19 64° ENE 19:36:19 19° SSE
Cosmos 1891 Rocket 4.4 19:27:48 10° S 19:33:54 64° E 19:40:09 10° NNE
COSMOS 2487 2.2 19:30:55 10° NNW 19:34:24 82° ENE 19:35:18 47° SSE
STARLINK-1057 3.5 19:30:19 10° WSW 19:34:28 84° SSE 19:35:45 43° ENE
STARLINK-62 4.2 19:31:37 10° W 19:34:59 38° N 19:35:55 32° NNE
STARLINK-34 4.2 19:33:16 10° W 19:36:38 38° N 19:37:30 32° NNE
Meteor 1-19 Rocket 4.3 19:30:59 10° N 19:36:46 57° ENE 19:40:38 20° SSE
SPOT 3 Rocket 3.8 19:36:24 33° ESE 19:38:16 47° ENE 19:43:16 10° N
STARLINK-81 4.2 19:34:31 10° W 19:38:26 47° NNW 19:39:45 33° NE
STARLINK-1034 3.5 19:35:17 10° WSW 19:39:25 89° SSE 19:40:31 49° ENE
Cosmos 44 Rocket 3.4 19:34:50 10° NNW 19:39:28 51° NE 19:40:28 43° E
Cosmos 468 Rocket 4.2 19:35:13 10° S 19:40:16 48° ESE 19:44:32 15° NE
STARLINK-54 4.3 19:36:25 10° W 19:40:19 45° NNW 19:41:32 34° NE
Meteor 2-4 Rocket 4.2 19:35:09 10° N 19:40:44 42° ENE 19:42:12 36° ESE
STARLINK-77 4.3 19:37:53 10° W 19:41:46 46° NNW 19:42:57 35° NNE
Cosmos 2219 4.1 19:37:10 10° NNW 19:42:09 29° NE 19:42:43 28° ENE
Cosmos 1869 Rocket 3.7 19:38:09 10° SSE 19:42:47 47° ENE 19:46:37 10° NNE
STARLINK-33 4.2 19:39:45 10° WNW 19:42:45 32° N 19:43:00 31° N
STARLINK-25 4.3 19:39:32 10° W 19:43:26 45° NNW 19:44:32 35° NNE
USA 186 4.2 19:46:30 10° N 19:46:30 10° N 19:46:33 10° N
BREEZE-M DEB (TANK) 4.0 19:41:17 10° W 19:44:16 51° SSW 19:47:33 25° SE
SJ 16-02 1.3 19:39:55 10° NNW 19:44:19 63° ENE 19:45:09 52° ESE
STARLINK-1068 3.5 19:40:15 10° WSW 19:44:24 87° NNW 19:45:17 54° ENE
Meteor 1-25 Rocket 4.1 19:38:55 10° S 19:44:37 87° ESE 19:50:17 10° NNE
STARLINK-66 4.3 19:41:47 10° WNW 19:44:47 32° N 19:44:57 31° N
STARLINK-55 4.3 19:42:00 10° WNW 19:45:00 32° N 19:45:07 31° N
STARLINK-71 4.4 19:41:28 10° W 19:45:20 44° N 19:46:21 36° NNE
STARLINK-1007 3.9 19:43:10 10° W 19:46:12 38° NNW 19:46:20 38° N
ADEOS Rocket 3.9 19:38:57 10° N 19:46:40 70° WNW 19:54:17 10° SSW
STARLINK-28 4.3 19:43:41 10° WNW 19:46:40 31° N 19:46:43 31° N
STARLINK-79 4.3 19:42:51 10° W 19:46:44 44° NNW 19:47:42 37° NNE
STARLINK-78 4.3 19:44:34 10° W 19:48:27 44° NNW 19:49:20 37° NNE
Cosmos 1656 Rocket 3.6 19:43:19 10° SSW 19:48:50 87° WNW 19:54:30 10° NNE
Cosmos 1898 Rocket 3.3 19:44:42 10° NNW 19:49:55 78° ENE 19:52:08 35° SSE
STARLINK-57 4.3 19:46:20 10° W 19:50:13 43° N 19:51:01 38° NNE
IRS-1A Rocket 4.5 19:45:44 10° S 19:51:13 68° WSW 19:56:44 10° NNW
STARLINK-49 4.3 19:47:52 10° W 19:51:44 43° N 19:52:28 39° NNE
SJ-6B 2.5 19:52:31 78° NE 19:52:31 78° NE 19:56:12 10° N
STARLINK-27 4.3 19:49:32 10° W 19:53:24 43° N 19:54:04 39° NNE
Cosmos 489 Rocket 4.4 19:47:11 10° S 19:53:28 70° ESE 19:59:46 10° NNE
STARLINK-1060 3.6 19:50:14 10° WSW 19:54:22 78° NNW 19:54:51 66° NE
STARLINK-74 4.3 19:51:13 10° W 19:55:04 42° N 19:55:40 39° NNE
STARLINK-42 4.5 19:52:27 10° WNW 19:55:05 30° NNW 19:55:05 30° NNW
STARLINK-39 4.3 19:52:52 10° W 19:56:44 42° N 19:57:15 40° NNE
STARLINK-31 4.3 19:54:34 10° W 19:58:25 42° N 19:58:51 40° N
Cosmos 1464 Rocket 4.0 19:52:53 10° S 19:59:15 87° W 20:05:41 10° N
Nadezhda 4 Rocket 3.9 19:52:56 10° N 19:59:15 75° E 20:03:47 20° SSE
STARLINK-1030 3.6 19:55:15 10° WSW 19:59:23 74° NNW 19:59:40 70° NNE
STARLINK-1010 4.4 19:56:44 10° W 19:59:22 34° NNW 19:59:22 34° NNW
STARLINK-69 4.4 19:56:25 10° W 20:00:15 41° N 20:00:36 40° N
STARLINK-21 4.4 19:57:54 10° W 20:01:45 41° N 20:02:02 40° N
Cosmos 2369 Rocket 3.5 19:57:06 10° WSW 20:02:23 39° NW 20:07:45 10° NNE
STARLINK-45 4.4 19:59:50 10° WNW 20:03:39 40° N 20:03:51 40° N
STARLINK-1020 3.7 20:00:13 10° WSW 20:04:20 70° NNW 20:04:25 70° NNW
STARLINK-70 4.4 20:01:23 10° WNW 20:05:13 40° N 20:05:21 40° N
STARLINK-1047 3.7 20:01:08 10° WSW 20:05:17 68° NNW 20:05:23 68° NNW
Cosmos 2026 Rocket 4.5 20:00:05 10° N 20:05:16 39° ENE 20:05:16 39° ENE
STARLINK-76 4.4 20:02:55 10° W 20:06:45 40° N 20:06:49 40° N
Cosmos 1763 Rocket 3.4 20:02:13 10° S 20:07:22 66° ESE 20:07:24 66° ESE
STARLINK-23 4.5 20:04:35 10° WNW 20:08:24 40° N 20:08:24 40° N
USA 234 3.7 20:06:31 37° ENE 20:08:35 48° NNE 20:14:48 10° NW
STARLINK-1052 3.8 20:05:14 10° WSW 20:09:14 66° NW 20:09:14 66° NW
STARLINK-32 4.5 20:06:16 10° WNW 20:10:00 40° N 20:10:00 40° N
BREEZE-M DEB (TANK) 4.4 20:08:51 10° WNW 20:10:16 33° WNW 20:10:16 33° WNW
MetOp-A 4.0 20:11:18 66° ESE 20:11:51 72° ENE 20:17:13 10° N
Cosmos 2221 Rocket 4.3 20:08:30 10° N 20:11:44 44° NNE 20:11:44 44° NNE
Cosmos 858 Rocket 4.4 20:09:23 10° NNW 20:14:38 88° WSW 20:15:23 66° SSE
NOSS 3-2 (A) 4.3 20:09:02 10° NW 20:16:03 49° NE 20:17:38 44° ENE
Timation 2 Rocket 4.2 20:11:48 10° NNW 20:18:43 80° WSW 20:21:36 38° SSE
Cosmos 2034 Rocket 3.9 20:12:59 10° S 20:19:10 86° W 20:25:21 10° N
STARLINK-1033 4.2 20:15:14 10° WSW 20:18:48 55° WNW 20:18:48 55° WNW
STARLINK-1035 4.3 20:16:18 10° W 20:20:06 55° NW 20:20:06 55° NW
ARGOS 3.8 20:20:43 16° S 20:24:56 55° W 20:30:18 10° NNW
BREEZE-M DEB (TANK) 3.7 20:04:29 10° W 20:26:33 80° N 20:27:47 60° ENE
H-2A R/B 3.4 20:30:08 10° SSW 20:35:08 39° W 20:40:15 10° NNW
ARGOS Delta rocket 4.5 20:37:12 47° W 20:37:13 47° W 20:41:31 10° NNW
CENTAUR R/B 3.6 20:33:07 10° NW 20:40:28 44° NE 20:41:17 43° NE
Lacrosse 5 3.8 20:36:20 10° SSW 20:37:46 19° SSW 20:37:46 19° SSW
Cosmos 1092 Rocket 4.0 20:36:29 10° N 20:42:52 84° W 20:43:32 73° SSW
Cosmos 1937 Rocket 4.1 20:40:08 10° NNW 20:45:13 51° WSW 20:45:28 50° WSW
Cosmos 2297 Rocket 3.0 20:40:09 10° NNW 20:44:06 41° N 20:44:06 41° N
Lacrosse 5 rocket 3.3 20:42:17 10° NW 20:44:58 28° NNW 20:44:58 28° NNW
Resurs 01 Rocket 3.5 20:53:04 26° NNW 20:53:04 26° NNW 20:55:02 10° NNW
ATLAS 3B R/B 3.7 20:45:12 10° NNW 20:50:49 32° NNE 20:50:49 32° NNE
Cosmos 2227 Rocket 3.3 20:58:32 10° NNW 21:01:57 37° N 21:01:57 37° N
USA 238 DEB 3.9 21:07:30 10° NW 21:13:47 71° NNW 21:13:47 71° NNW
USA 238 3.9 21:07:36 10° NW 21:13:52 70° NNW 21:13:52 70° NNW
SJ 16-02 4.1 21:19:54 10° WNW 21:22:12 15° W 21:22:12 15° W
Cosmos 2219 4.5 21:21:03 10° NNW 21:24:39 38° NW 21:24:39 38° NW
USA 234 4.2 21:53:52 41° WNW 21:53:52 41° WNW 21:57:54 10° NW
CENTAUR R/B 4.1 22:23:49 10° NW 22:28:29 40° NW 22:28:29 40° NW
